Content
SEND FEEDBACK

Daily
Averages
Monthly
Summary
United States of America

ANN ARBOR, MICHIGAN


Home > North America > United States > Michigan
Elevation: 759 feet     Latitude: 42 17N     Longitude: 083 43W

WEATHER
 
SELECT A DAY
Number of Records: 203,415;   Date Range: 1/1/95 - 7/29/14
 
SHARE

PRINT THIS DATA

[ ← Previous Day ]
WEATHER ALMANAC - MARCH 24, 2014
[ Next Day → ]
[ °C ]   °F
Weather ElementAverageHighLow
Temperature22.4 °F30.9 °F (5:53 pm)15.1 °F (5:53 am)
Dewpoint8.7 °F12.9 °F (10:53 pm)6.1 °F (11:53 am)
Humidity56.9 %78 % (11:53 pm)42 % (5:53 pm)
Barometer30.26 in30.37 in (6:53 am)30.13 in (11:53 pm)
Wind Speed7.7 mph17.3 mph (1:53 pm)
Wind Gust23 mph (6:53 pm)
Weather ElementAverage
Visibility10 mi
Wind DirectionWSW (245.8 °)

Weather ElementTotal
Precipitation---
Heating Degree Days42 (Base 65)
Averaged from 24 records on March 24, 2014
WEATHER CONDITIONS BREAKOUT
WIND DIRECTION BREAKOUT
WEATHER BY HOUR - MARCH 24, 2014
[ °C ]   °F
Local TimeTemperatureDewpointHumidityBarometerVisibilityWind DirectionWind SpeedGust SpeedPrecipitationEventsConditions
1:53 AM19.0 °F9.0 °F65 %30.35 in10.0 miWNW (300°)5.8 mphOvercast
2:33 AM19.9 °F9.0 °F62 %30.32 in10.0 miNNW (330°)5.8 mphMostly Cloudy
2:53 AM19.0 °F7.0 °F59 %30.36 in10.0 miNorth (350°)9.2 mphPartly Cloudy
3:53 AM17.1 °F7.0 °F65 %30.35 in10.0 miNNW (330°)5.8 mphClear
4:53 AM16.0 °F7.0 °F68 %30.35 in10.0 miNorth (350°)5.8 mphClear
5:53 AM15.1 °F7.0 °F70 %30.35 in10.0 miNNW (330°)5.8 mphClear
6:53 AM15.1 °F7.0 °F70 %30.37 in10.0 miNW (320°)5.8 mphClear
7:53 AM15.1 °F7.0 °F70 %30.36 in10.0 miNNW (340°)3.5 mphClear
8:53 AM18.0 °F9.0 °F68 %30.37 in10.0 miWNW (290°)4.6 mphClear
9:53 AM19.9 °F8.1 °F60 %30.34 in10.0 miCalmClear
10:53 AM21.9 °F7.0 °F53 %30.32 in10.0 miVariable4.6 mphClear
11:53 AM24.1 °F6.1 °F46 %30.31 in10.0 miWSW (240°)5.8 mphMostly Cloudy
12:53 PM25.0 °F8.1 °F49 %30.30 in10.0 miWSW (250°)6.9 mph16.1 mphOvercast
1:53 PM28.0 °F10.0 °F47 %30.26 in10.0 miWest (260°)17.3 mphOvercast
2:53 PM28.0 °F10.9 °F49 %30.22 in9.0 miWSW (250°)11.5 mph0.00 inSnowLight Snow
3:53 PM28.9 °F10.9 °F47 %30.19 in10.0 miWSW (250°)11.5 mph0.00 inOvercast
4:53 PM30.0 °F10.9 °F45 %30.17 in10.0 miWest (270°)15.0 mphOvercast
5:53 PM30.9 °F10.0 °F42 %30.16 in10.0 miWest (280°)15.0 mph21.9 mphMostly Cloudy
6:53 PM30.0 °F10.0 °F43 %30.15 in10.0 miWest (270°)15.0 mph23.0 mphMostly Cloudy
7:53 PM27.0 °F8.1 °F45 %30.14 in10.0 miWest (280°)12.7 mphClear
8:53 PM26.1 °F6.1 °F43 %30.15 in10.0 miWNW (300°)11.5 mphClear
9:53 PM24.1 °F8.1 °F51 %30.14 in10.0 miNW (310°)6.9 mphClear
10:53 PM21.0 °F12.9 °F71 %30.14 in10.0 miCalmClear
11:53 PM18.0 °F12.0 °F78 %30.13 in10.0 miCalmClear
Hourly data recorded from KARB, located miles away from Ann Arbor, Michigan







STORIES FROM OUR PARTNERS